Home   Weather   Bloemfontein   Past weeks

Flag for South Africa Past Weather in Bloemfontein, South Africa — Yesterday and Last 2 Weeks

Now
70 °F

Sunny.


Feels Like: 70 °F
Forecast: 39 / 71 °F
Wind: 2 mph from Northeast

Location: Bloemfontein Airport

Current Time: Apr 25, 2017 at 12:31:23 pm

Latest Report: Apr 25, 2017 at 11:00 am


Visibility: 10 mi

Pressure: 30.33 "Hg (25.79 "Hg at 1397m altitude)

Humidity: 35%

Dew Point: 41 °F

Location of BloemfonteinLocation

Past Weather in Bloemfontein — Graph

°F

Bloemfontein Temperature Yesterday

Maximum temperature yesterday: 75 °F (at 4:00 pm)
Minimum temperature yesterday: 39 °F (at 5:00 am)
Average temperature yesterday: 57 °F

High & Low Weather Summary for the Past Weeks

 TemperatureHumidityPressure
High81 °F (Apr 10, 2:00 pm)100% (Apr 11, 12:00 am)30.33 "Hg (Apr 11, 12:00 am)
Low32 °F (Apr 20, 7:00 am)8% (Apr 20, 4:00 pm)29.98 "Hg (Apr 13, 3:00 am)
Average57 °F61%30.20 "Hg
* Reported Apr 10 11:00 am — Apr 25 11:00 am, Bloemfontein, Weather by CustomWeather, © 2017

Note: Actual official high and low records may vary slightly from our data, if they occured in-between our weather recording intervals... More about our weather records

Advertising

Bloemfontein Weather History for the Previous 24 Hours

Scroll right to see more
 ConditionsComfort  
Time TempWeatherWind HumidityBarometerVisibility
11:00 am
Tue, Apr 25
70 °FSunny.2 mph35%30.33 "Hg10 mi
10:00 am63 °FPassing clouds.5 mph56%30.30 "HgN/A
9:00 am57 °FSunny.6 mph67%30.30 "Hg10 mi
8:00 am52 °FSunny.No wind67%30.33 "Hg10 mi
7:39 am46 °FSunny.2 mph82%30.30 "Hg10 mi
7:00 am37 °FSunny.No wind93%30.27 "Hg10 mi
6:00 am39 °FClear.3 mph87%30.27 "Hg10 mi
5:00 am37 °FClear.1 mph87%30.30 "Hg10 mi
4:00 am43 °FQuite cool.No wind76%30.27 "HgN/A
3:00 am43 °FQuite cool.1 mph76%30.27 "HgN/A
2:00 am45 °FQuite cool.2 mph76%30.27 "HgN/A
1:00 am45 °FQuite cool.7 mph76%30.27 "HgN/A
12:00 am46 °FCool.2 mph71%30.27 "HgN/A
11:00 pm
Mon, Apr 24
48 °FCool.2 mph66%30.27 "HgN/A
10:00 pm50 °FCool.2 mph62%30.27 "HgN/A
9:01 pm55 °FRefreshingly cool.7 mph55%30.24 "HgN/A
8:00 pm57 °FClear.2 mph48%30.24 "Hg10 mi
7:00 pm59 °FClear.5 mph45%30.21 "Hg10 mi
6:00 pm68 °FPassing clouds.3 mph33%30.21 "HgN/A
5:00 pm75 °FSunny.1 mph21%30.18 "Hg10 mi
4:00 pm75 °FPassing clouds.6 mph24%30.18 "HgN/A
3:00 pm72 °FPassing clouds.5 mph27%30.18 "HgN/A
2:00 pm73 °FSunny.5 mph25%30.21 "Hg10 mi
1:00 pm72 °FSunny.6 mph38%30.24 "Hg10 mi
12:00 pm70 °FSunny.6 mph46%30.27 "Hg10 mi
Weather by CustomWeather, © 2017

See weather overviewHow to use our weather pages